FW3572 Weather Reports


time (UTC)temp
F
wind
direction
speed
knots
gust
knots
rain 1hr
in
rain 24hr
in
rain mn
in
humidity
%
barometer
mb
20260831025002 79 11 0.0 0.0 0.00 0.81 0.81 100 1018.7
20260831024502 79 11 0.0 1.7 0.00 0.81 0.81 100 1018.7
20260831024002 79 11 0.0 1.7 0.00 0.81 0.81 100 1018.7
20260831023502 79 12 0.0 2.6 0.00 0.81 0.81 100 1018.7
20260831023001 79 12 0.0 2.6 0.00 0.81 0.81 100 1018.7
20260831022504 79 11 0.9 2.6 0.00 0.81 0.81 100 1018.6
20260831022001 79 12 0.0 1.7 0.00 0.81 0.81 100 1018.6
20260831021603 79 12 0.0 1.7 0.00 0.81 0.81 100 1018.6
20260831021100 79 12 0.0 2.6 0.00 0.81 0.81 100 1018.7
20260831021004 79 12 0.0 2.6 0.00 0.81 0.81 100 1018.7
20260831020600 79 12 0.9 3.5 0.00 0.81 0.81 100 1018.7
20260831015600 79 5 0.0 3.5 0.00 0.81 0.81 100 1018.6
20260831015100 79 355 0.0 3.5 0.00 0.81 0.81 100 1018.6
20260831014610 79 355 0.0 3.5 0.00 0.81 0.81 100 1018.7
20260831014100 79 15 0.9 3.5 0.00 0.81 0.81 100 1018.7
20260831013600 79 17 0.9 3.5 0.00 0.81 0.81 100 1018.7
20260831013113 79 11 0.0 2.6 0.00 0.81 0.81 100 1018.8
20260831012600 79 14 0.0 0.0 0.00 0.81 0.81 100 1018.9
20260831012100 79 15 0.0 0.0 0.00 0.81 0.81 100 1018.8
20260831011604 80 28 0.0 0.0 0.00 0.81 0.81 100 1018.9
20260831011058 80 33 0.0 1.7 0.00 0.81 0.81 100 1018.8
20260831010559 80 38 0.0 1.7 0.00 0.81 0.81 100 1018.7
20260831010058 80 38 0.0 2.6 0.00 0.81 0.81 100 1018.7
20260831005558 80 38 0.9 2.6 0.00 0.81 0.81 100 1018.7
20260831005057 80 79 0.0 1.7 0.00 0.81 0.81 100 1018.8
20260831004558 80 80 0.0 1.7 0.00 0.81 0.81 100 1018.7
20260831004058 80 77 0.0 3.5 0.00 0.81 0.81 100 1018.7
20260831003558 80 55 0.0 3.5 0.00 0.81 0.81 100 1018.7
20260831003059 80 110 0.0 1.7 0.00 0.81 0.81 100 1018.5
20260831002559 80 111 0.0 2.6 0.00 0.81 0.81 100 1018.6
20260831002058 80 113 0.0 2.6 0.00 0.81 0.81 100 1018.6
20260831001557 80 119 0.0 2.6 0.00 0.81 0.81 100 1018.6
20260831001056 80 120 0.0 0.9 0.00 0.81 0.81 100 1018.6
20260831000556 80 40 0.0 3.5 0.00 0.81 0.81 100 1018.3
20260831000056 80 26 0.9 3.5 0.00 0.81 0.81 100 1018.4
20260830235555 80 101 0.0 3.5 0.00 0.81 0.81 100 1018.5
20260830235057 81 104 0.0 1.7 0.00 0.81 0.81 100 1018.5
20260830234604 81 104 0.0 3.5 0.00 0.81 0.81 100 1018.4
20260830234059 81 105 0.0 3.5 0.00 0.81 0.81 100 1018.3
20260830233556 81 107 0.9 3.5 0.00 0.81 0.81 100 1018.4
20260830233055 81 105 0.0 2.6 0.00 0.81 0.81 100 1018.3
20260830232555 81 96 0.0 2.6 0.00 0.81 0.81 100 1018.1
20260830232057 81 74 0.0 2.6 0.00 0.81 0.81 100 1018.0
20260830231555 81 103 0.0 1.7 0.00 0.81 0.81 100 1017.9
20260830231054 81 105 0.0 1.7 0.00 0.81 0.81 100 1017.8
20260830230554 81 105 0.0 2.6 0.00 0.81 0.81 100 1017.8
20260830230055 81 105 0.9 2.6 0.00 0.81 0.81 100 1017.6
20260830225554 81 97 0.9 2.6 0.00 0.81 0.81 100 1017.6
20260830225054 81 90 0.0 2.6 0.00 0.81 0.81 100 1017.8
20260830224556 81 91 0.0 2.6 0.00 0.82 0.81 100 1017.8
20260830224054 82 48 0.0 2.6 0.00 0.82 0.81 100 1017.9
20260830223556 82 81 0.0 2.6 0.00 0.82 0.81 100 1018.0
20260830223055 82 81 0.0 2.6 0.00 0.82 0.81 100 1018.0
20260830222556 82 81 0.9 2.6 0.00 0.82 0.81 100 1018.1
20260830222053 82 61 0.0 3.5 0.00 0.82 0.81 100 1018.1
20260830221553 82 93 0.0 3.5 0.00 0.82 0.81 100 1018.1
20260830221052 82 96 0.0 2.6 0.00 0.82 0.81 100 1018.2
20260830220552 82 96 0.9 2.6 0.00 0.82 0.81 100 1018.1
20260830220053 82 83 0.0 2.6 0.00 0.82 0.81 100 1018.1
20260830215553 82 54 0.9 4.3 0.00 0.82 0.81 100 1018.1
20260830215051 83 69 0.0 2.6 0.00 0.82 0.81 100 1018.1
20260830214551 83 85 0.0 2.6 0.00 0.83 0.81 100 1018.1
20260830214053 83 17 0.0 2.6 0.00 0.83 0.81 100 1018.0
20260830213553 83 99 0.9 3.5 0.00 0.83 0.81 100 1017.8
20260830213054 84 101 0.9 3.5 0.00 0.83 0.81 100 1017.7
20260830212551 84 26 0.9 6.1 0.00 0.83 0.81 100 1017.8
20260830212051 84 98 1.7 6.1 0.00 0.83 0.81 100 1017.9
20260830211552 85 117 0.9 6.1 0.00 0.83 0.81 100 1017.9
20260830211050 84 113 2.6 6.1 0.00 0.83 0.81 100 1017.9
20260830210551 85 131 1.7 6.1 0.00 0.83 0.81 100 1018.0
20260830210053 85 117 1.7 6.1 0.00 0.83 0.81 100 1017.9
20260830205550 85 105 2.6 6.1 0.00 0.83 0.81 100 1017.9
20260830205051 85 141 2.6 6.1 0.00 0.83 0.81 100 1017.9
20260830204550 85 131 1.7 7.0 0.00 0.93 0.81 100 1017.9
20260830204053 85 130 0.9 7.0 0.00 0.93 0.81 100 1017.8
20260830203550 85 116 0.0 3.5 0.00 0.93 0.81 100 1017.9
20260830203109 85 105 0.0 2.6 0.00 0.93 0.81 100 1017.8
20260830202551 84 139 0.0 3.5 0.00 0.93 0.81 100 1018.1
20260830202049 84 139 0.9 6.1 0.00 0.93 0.81 100 1018.1
20260830201550 84 140 2.6 6.1 0.00 0.93 0.81 100 1018.1
20260830201048 84 141 1.7 7.0 0.00 0.93 0.81 100 1018.2
20260830200651 83 153 2.6 7.0 0.00 0.93 0.81 100 1018.2
20260830200049 84 173 1.7 4.3 0.00 0.93 0.81 100 1018.3
20260830195549 84 167 2.6 7.0 0.00 0.93 0.81 100 1018.3
20260830195048 84 149 2.6 7.0 0.00 0.93 0.81 100 1018.3
20260830194550 84 154 1.7 7.0 0.00 0.97 0.81 100 1018.3
20260830194048 84 148 2.6 6.1 0.00 0.97 0.81 100 1018.2
20260830193546 84 173 0.0 4.3 0.00 0.97 0.81 100 1018.3
20260830193047 84 190 0.9 3.5 0.00 0.97 0.81 100 1018.4
20260830192547 84 172 0.9 6.1 0.00 0.97 0.81 100 1018.5
20260830192046 83 167 1.7 6.1 0.00 0.97 0.81 100 1018.5
20260830191554 83 148 0.9 4.3 0.00 0.97 0.81 100 1018.5
20260830191046 82 138 0.0 2.6 0.00 0.97 0.81 100 1018.5
20260830190545 82 137 0.9 2.6 0.00 0.97 0.81 100 1018.4
20260830190046 83 134 0.0 0.9 0.00 0.97 0.81 100 1018.4
20260830185545 82 135 0.0 0.9 0.00 0.97 0.81 100 1018.4
20260830185046 82 135 0.0 1.7 0.00 0.97 0.81 100 1018.4
20260830184545 82 135 0.0 3.5 0.00 0.97 0.81 100 1018.6
20260830184045 82 58 0.0 4.3 0.00 0.97 0.81 100 1018.8
20260830183544 83 360 0.0 4.3 0.00 0.97 0.81 100 1018.8
20260830183048 83 98 0.0 4.3 0.00 0.97 0.81 100 1018.9
20260830182544 83 27 0.0 7.0 0.00 0.97 0.81 100 1019.0
20260830182044 83 355 2.6 7.0 0.00 0.97 0.81 100 1018.9
20260830181555 83 5 2.6 6.1 0.00 0.97 0.81 100 1019.1
20260830181044 83 83 0.0 7.0 0.00 0.97 0.81 100 1019.0
20260830180543 83 5 2.6 7.8 0.00 0.97 0.81 100 1019.1
20260830180045 82 15 2.6 7.8 0.00 0.97 0.81 100 1019.3
20260830175543 81 104 0.9 9.6 0.00 0.97 0.81 100 1019.4
20260830175043 81 342 3.5 9.6 0.00 0.97 0.81 100 1019.5
20260830174543 80 34 1.7 5.2 0.00 0.97 0.81 100 1019.8
20260830174045 81 102 1.7 5.2 0.00 0.97 0.81 100 1019.8
20260830173543 80 65 2.6 5.2 0.00 0.97 0.81 100 1019.8
20260830173101 80 99 0.9 7.0 0.00 0.97 0.81 100 1019.9
20260830172542 80 19 1.7 5.2 0.00 0.97 0.81 100 1019.9
20260830172042 79 52 0.9 7.8 0.00 0.97 0.81 100 1019.9
20260830171544 79 355 4.3 8.7 0.00 0.97 0.81 100 1020.0
20260830171041 79 344 2.6 7.0 0.00 0.97 0.81 100 1019.8
20260830170544 80 347 1.7 7.0 0.00 0.97 0.81 100 1019.7
20260830170041 80 312 2.6 7.8 0.00 0.97 0.81 100 1019.7
20260830165541 79 318 2.6 7.8 0.00 0.97 0.81 100 1019.7
20260830165040 78 333 1.7 8.7 0.00 0.97 0.81 100 1020.1
20260830164603 78 355 1.7 7.0 0.01 0.97 0.81 100 1020.6
20260830164040 78 36 0.9 5.2 0.01 0.97 0.81 100 1020.3
20260830163539 76 360 2.6 7.8 0.03 0.97 0.81 100 1020.4
20260830163051 76 111 1.7 6.1 0.05 0.97 0.81 100 1020.7
20260830162539 76 355 1.7 4.3 0.06 0.97 0.81 100 1020.5
20260830162041 76 340 1.7 7.0 0.23 0.97 0.81 100 1020.5
20260830161542 76 360 1.7 7.0 0.54 0.97 0.81 100 1020.5
20260830161038 76 336 1.7 3.5 0.75 0.97 0.81 100 1020.6
20260830160537 76 11 0.9 3.5 0.75 0.97 0.81 100 1020.6
20260830160038 76 123 0.0 1.7 0.75 0.97 0.81 100 1020.8
20260830155539 76 124 0.0 5.2 0.75 0.97 0.81 100 1020.8
20260830155038 76 112 0.9 5.2 0.75 0.97 0.81 100 1020.7
20260830154537 76 127 0.0 1.7 0.74 0.96 0.80 100 1020.5
20260830154038 76 128 0.0 3.5 0.77 0.96 0.80 100 1020.6
20260830153538 76 128 1.7 7.8 0.77 0.94 0.78 100 1020.7
20260830153036 76 159 0.0 7.8 0.75 0.92 0.76 100 1020.5
20260830152537 76 206 0.9 7.0 0.73 0.90 0.74 100 1020.5
20260830152037 76 235 2.6 26.1 0.53 0.70 0.54 100 1020.9
20260830151541 77 209 13.0 26.1 0.20 0.37 0.21 100 1021.1
20260830151034 80 183 7.8 17.4 0.05 0.22 0.06 100 1020.1
20260830150534 81 133 4.3 8.7 0.05 0.22 0.06 100 1019.8
20260830150039 81 202 1.7 7.0 0.05 0.22 0.06 100 1019.8
20260830145532 82 217 0.0 4.3 0.05 0.22 0.06 100 1019.7
20260830145031 82 310 2.6 13.0 0.05 0.22 0.06 100 1019.5
20260830144532 82 238 1.7 13.0 0.05 0.22 0.06 100 1019.6
20260830144031 82 259 4.3 8.7 0.01 0.18 0.02 100 1019.6
20260830143534 84 238 3.5 7.0 0.00 0.17 0.01 100 1019.6
20260830143032 85 211 0.9 4.3 0.00 0.17 0.01 100 1019.6
20260830142531 85 184 2.6 4.3 0.00 0.17 0.01 100 1019.6
20260830142033 86 159 0.9 5.2 0.00 0.17 0.01 100 1019.7
20260830141528 85 167 1.7 6.1 0.00 0.17 0.01 100 1019.7
20260830141028 84 218 2.6 6.1 0.00 0.17 0.01 100 1019.6
20260830140530 84 165 1.7 5.2 0.01 0.17 0.01 100 1019.7
20260830140028 85 215 0.9 6.1 0.01 0.17 0.01 100 1019.6
20260830135528 85 229 2.6 6.1 0.01 0.17 0.01 100 1019.7
20260830135028 85 178 1.7 4.3 0.01 0.17 0.01 100 1019.7
20260830134529 85 226 0.9 3.5 0.01 0.17 0.01 100 1019.8
20260830134027 85 196 0.0 3.5 0.01 0.17 0.01 100 1019.7
20260830133531 85 203 0.0 5.2 0.01 0.17 0.01 100 1019.7
20260830133027 85 165 0.0 5.2 0.01 0.17 0.01 100 1019.6
20260830132527 85 215 0.0 4.3 0.01 0.17 0.01 100 1019.6
20260830132024 84 173 0.9 3.5 0.01 0.17 0.01 100 1019.5
20260830131522 84 187 0.9 5.2 0.01 0.17 0.01 100 1019.4
20260830131021 84 163 0.0 5.2 0.01 0.17 0.01 100 1019.4
20260830130521 83 159 1.7 5.2 0.00 0.16 0.00 100 1019.4
20260830130021 83 184 0.0 2.6 0.00 0.16 0.00 100 1019.2
20260830125520 83 171 0.0 2.6 0.00 0.16 0.00 100 1019.3
20260830125019 83 171 0.0 3.5 0.00 0.16 0.00 100 1019.3
20260830124520 83 186 0.0 0.0 0.00 0.16 0.00 100 1019.2
20260830124017 82 170 0.0 0.0 0.00 0.16 0.00 100 1019.3
20260830123519 82 167 0.0 0.0 0.00 0.16 0.00 100 1019.3
20260830123016 82 143 0.0 0.0 0.00 0.16 0.00 100 1019.1
20260830122516 81 143 0.0 0.0 0.00 0.16 0.00 100 1019.1
20260830122015 81 143 0.0 0.0 0.00 0.16 0.00 100 1019.1
20260830121513 80 143 0.0 0.0 0.00 0.16 0.00 100 1019.1
20260830121013 80 143 0.0 0.0 0.00 0.16 0.00 100 1019.2
20260830120516 80 143 0.0 0.0 0.00 0.16 0.00 100 1019.0
20260830120012 80 143 0.0 0.0 0.00 0.16 0.00 100 1019.0
20260830115513 79 143 0.0 0.0 0.00 0.16 0.00 100 1018.9
20260830115012 79 143 0.0 0.0 0.00 0.16 0.00 100 1018.9
20260830114517 79 143 0.0 0.0 0.00 0.16 0.00 100 1018.8
20260830114016 79 143 0.0 0.0 0.00 0.16 0.00 100 1018.8
20260830113519 79 143 0.0 0.0 0.00 0.16 0.00 100 1018.7
20260830113012 79 143 0.0 0.0 0.00 0.16 0.00 100 1018.6
20260830112513 79 143 0.0 0.0 0.00 0.16 0.00 100 1018.5
20260830112012 79 143 0.0 0.0 0.00 0.16 0.00 100 1018.5
20260830111511 80 143 0.0 0.0 0.00 0.16 0.00 100 1018.3
20260830111011 80 143 0.0 0.0 0.00 0.16 0.00 100 1018.3
20260830110511 80 143 0.0 0.0 0.00 0.16 0.00 100 1018.3
20260830110012 80 143 0.0 0.0 0.00 0.16 0.00 100 1018.2
20260830105512 80 143 0.0 0.0 0.00 0.16 0.00 100 1018.1
20260830105013 80 143 0.0 0.0 0.00 0.16 0.00 100 1018.0
20260830104514 80 142 0.0 0.0 0.00 0.16 0.00 100 1017.9
20260830104010 80 142 0.0 0.0 0.00 0.16 0.00 100 1017.8
20260830103510 80 142 0.0 0.0 0.00 0.16 0.00 100 1017.7
20260830103011 80 142 0.0 0.0 0.00 0.16 0.00 100 1017.5
20260830102510 80 143 0.0 0.0 0.00 0.16 0.00 100 1017.5
20260830102010 80 143 0.0 0.0 0.00 0.16 0.00 100 1017.6
20260830101509 80 142 0.0 0.0 0.00 0.16 0.00 100 1017.5
20260830101010 80 143 0.0 2.6 0.00 0.16 0.00 100 1017.4
20260830100514 80 143 0.9 2.6 0.00 0.16 0.00 100 1017.5
20260830100010 80 142 0.9 2.6 0.00 0.16 0.00 100 1017.5
20260830095509 80 130 0.0 2.6 0.00 0.16 0.00 100 1017.5
20260830095010 80 130 0.0 0.0 0.00 0.16 0.00 100 1017.5
20260830094510 80 130 0.0 0.0 0.00 0.16 0.00 100 1017.5
20260830094010 80 130 0.0 0.0 0.00 0.16 0.00 100 1017.5
20260830093509 80 130 0.0 0.0 0.00 0.16 0.00 100 1017.4
20260830093008 80 130 0.0 0.0 0.00 0.16 0.00 100 1017.4
20260830092509 80 130 0.0 0.0 0.00 0.16 0.00 100 1017.4
20260830092009 80 130 0.0 2.6 0.00 0.16 0.00 100 1017.4
20260830091508 80 130 0.0 3.5 0.00 0.16 0.00 100 1017.3
20260830091006 80 130 0.9 3.5 0.00 0.16 0.00 100 1017.4
20260830090510 80 135 0.0 3.5 0.00 0.16 0.00 100 1017.4
20260830090020 80 110 0.9 3.5 0.00 0.16 0.00 100 1017.4
20260830085506 81 109 0.0 2.6 0.00 0.16 0.00 100 1017.5
20260830085006 81 109 0.0 6.1 0.00 0.16 0.00 100 1017.5
20260830084506 81 111 0.9 6.1 0.00 0.18 0.00 100 1017.5
20260830084006 81 140 1.7 3.5 0.00 0.18 0.00 100 1017.6
20260830083506 81 130 1.7 3.5 0.00 0.18 0.00 100 1017.7
20260830083012 81 112 0.9 5.2 0.00 0.18 0.00 100 1017.7
20260830082505 81 130 0.9 5.2 0.00 0.18 0.00 100 1017.6
20260830082004 81 111 0.0 5.2 0.00 0.18 0.00 100 1017.6
20260830081503 81 122 1.7 5.2 0.00 0.18 0.00 100 1017.6
20260830081003 81 124 1.7 5.2 0.00 0.18 0.00 100 1017.7
20260830080503 80 104 1.7 5.2 0.00 0.18 0.00 100 1017.7
20260830080003 80 110 0.9 3.5 0.00 0.18 0.00 100 1017.7
20260830075502 80 110 1.7 3.5 0.00 0.18 0.00 100 1017.8
20260830075001 80 122 1.7 6.1 0.00 0.18 0.00 100 1017.8
20260830074500 80 131 1.7 6.1 0.00 0.18 0.00 100 1017.9
20260830074002 80 141 2.6 7.0 0.00 0.18 0.00 100 1018.0
20260830073600 80 157 0.9 7.0 0.00 0.18 0.00 100 1018.0
20260830073101 80 142 2.6 7.0 0.00 0.18 0.00 100 1018.0
20260830072559 80 140 2.6 7.0 0.00 0.18 0.00 100 1018.1
20260830072059 80 126 1.7 7.0 0.00 0.18 0.00 100 1018.1
20260830072001 80 126 0.9 7.0 0.00 0.18 0.00 100 1018.1
20260830071559 80 143 0.9 7.0 0.00 0.18 0.00 100 1018.1
20260830071100 80 108 1.7 7.0 0.00 0.18 0.00 100 1018.2
20260830070602 80 106 1.7 7.0 0.00 0.18 0.00 100 1018.1
20260830070107 80 135 1.7 7.0 0.00 0.18 0.00 100 1018.1
20260830065559 80 135 2.6 8.7 0.00 0.18 0.00 100 1018.3
20260830065058 80 149 1.7 8.7 0.00 0.18 0.00 100 1018.4
20260830064558 80 126 0.9 7.8 0.00 0.18 0.00 100 1018.4
20260830064056 80 99 1.7 7.8 0.00 0.18 0.00 100 1018.4
20260830063556 80 123 3.5 7.8 0.00 0.18 0.00 100 1018.3
20260830063054 80 117 3.5 7.8 0.00 0.18 0.00 100 1018.5
20260830062554 80 122 4.3 9.6 0.00 0.18 0.00 100 1018.6
20260830062054 80 150 2.6 7.8 0.00 0.18 0.00 100 1018.6
20260830061604 80 112 3.5 11.3 0.00 0.18 0.00 100 1018.6
20260830061052 80 124 2.6 8.7 0.00 0.18 0.00 100 1018.5
20260830060553 80 118 4.3 8.7 0.00 0.18 0.00 100 1018.7
20260830060052 80 123 2.6 10.4 0.00 0.18 0.00 100 1018.6
20260830055555 80 107 3.5 10.4 0.00 0.18 0.00 100 1018.7
20260830055051 80 140 4.3 12.2 0.00 0.18 0.00 100 1018.8
20260830054553 80 94 4.3 12.2 0.00 0.18 0.00 100 1018.8
20260830054050 80 98 4.3 9.6 0.00 0.18 0.00 100 1018.8
20260830053548 79 132 4.3 10.4 0.00 0.18 0.00 100 1018.8
20260830053048 79 115 5.2 10.4 0.00 0.18 0.00 100 1018.8
20260830052547 79 121 4.3 9.6 0.00 0.18 0.00 100 1018.8
20260830052046 79 114 4.3 8.7 0.00 0.18 0.00 100 1018.9
20260830051551 79 107 3.5 9.6 0.00 0.18 0.00 100 1019.0
20260830051045 79 128 3.5 11.3 0.00 0.18 0.00 100 1019.2
20260830050544 79 172 3.5 11.3 0.00 0.18 0.00 100 1019.3
20260830050045 79 132 3.5 10.4 0.00 0.18 0.00 100 1019.5
20260830045542 78 117 4.3 9.6 0.00 0.18 0.00 100 1019.4
20260830045044 78 82 3.5 8.7 0.00 0.18 0.00 100 1019.4
20260830044551 78 108 3.5 7.8 0.00 0.18 0.00 100 1019.4
20260830044047 78 116 2.6 8.7 0.00 0.18 0.00 100 1019.4
20260830043542 78 65 2.6 7.0 0.00 0.18 0.00 100 1019.4
20260830043043 78 110 3.5 9.6 0.00 0.18 0.00 100 1019.5
20260830042541 78 158 5.2 9.6 0.00 0.18 0.00 100 1019.4
20260830042040 78 108 4.3 8.7 0.00 0.18 0.00 100 1019.4
20260830041549 78 137 3.5 10.4 0.00 0.18 0.00 100 1019.4
20260830041041 78 110 4.3 10.4 0.00 0.18 0.00 100 1019.5
20260830040537 78 109 5.2 9.6 0.00 0.18 0.00 100 1019.4
20260830040037 78 96 4.3 9.6 0.00 0.18 0.00 100 1019.5
20260830035536 77 126 2.6 7.8 0.00 0.18 0.00 100 1019.5
20260830035035 77 113 2.6 7.8 0.00 0.18 0.00 100 1019.6
20260830034534 76 110 0.9 5.2 0.00 0.18 0.18 100 1019.6
20260830034036 76 213 0.0 0.0 0.00 0.18 0.18 100 1019.5
20260830033533 76 232 0.0 0.0 0.00 0.18 0.18 100 1019.6
20260830033034 76 246 0.0 0.0 0.00 0.18 0.18 100 1019.6
20260830032533 75 246 0.0 0.0 0.00 0.18 0.18 100 1019.6
20260830032034 75 292 0.0 0.0 0.00 0.18 0.18 100 1019.6
20260830031536 75 292 0.0 0.0 0.00 0.18 0.18 100 1019.6
20260830031032 75 292 0.0 0.0 0.00 0.18 0.18 100 1019.5
20260830030532 75 292 0.0 0.0 0.00 0.18 0.18 100 1019.6
20260830030043 75 298 0.0 0.0 0.00 0.18 0.18 100 1019.6
20260830025534 75 298 0.0 0.0 0.00 0.18 0.18 100 1019.5
20260830025031 75 298 0.0 0.0 0.00 0.18 0.18 100 1019.4